Regional Weather Roundup
Issued by NWS Huntsville, AL

Current Version | Previous Version | Text Only | Print | Product List | Glossary On
Versions: 1 2 3 4 5 6 7 8 9 10 11 12 13 14 15 16 17 18 19 20 21 22 23 24 25 26 27 28 29 30 31 32 33 34 35 36 37 38 39 40 41 42 43 44 45 46 47 48 49 50
000
ASUS44 KHUN 290610
RWRHUN

WEATHER ROUNDUP FOR THE TENNESSEE VALLEY
NATIONAL WEATHER SERVICE HUNTSVILLE AL
100 AM CDT SAT AUG 29 2015

ALZ001>004-290700-
NORTHWEST ALABAMA

CITY           SKY/WX    TMP DP  RH WIND       PRES   REMARKS
SHOALS AIRPORT FAIR      74  68  81 SE6       30.10F
6HR MIN TEMP:  73; 6HR MAX TEMP:  81;

$$

ALZ005>007-016-290700-
NORTH CENTRAL ALABAMA

CITY           SKY/WX    TMP DP  RH WIND       PRES   REMARKS
DECATUR AP     FAIR      73  68  84 SE6       30.11F
6HR MIN TEMP:  72; 6HR MAX TEMP:  80;

HUNTSVILLE AP  FAIR      75  67  76 SE6       30.11F
6HR MIN TEMP:  75; 6HR MAX TEMP:  82;

HUN NWS/UAH      N/A     76  65  68 SE3         N/A
MERIDIANVILLE  FAIR      73  63  68 SE3       30.12F
REDSTONE ARSN  FAIR      73  67  82 S5        30.10F
VINEMONT AP    FAIR      72  66  83 SE5       30.14F
$$

ALZ008>010-290700-
NORTHEAST ALABAMA

CITY           SKY/WX    TMP DP  RH WIND       PRES   REMARKS
ALBERTVILLE    FAIR      70  70 100 CALM      30.14S
FORT PAYNE     FAIR      70  63  78 CALM      30.14S
SCOTTSBORO AP  FAIR      73  68  83 S6        30.14F
SCOTTSBORO HCN   N/A     70 N/A N/A MISG        N/A
VALLEY HEAD      N/A     73 N/A N/A MISG        N/A
$$

TNZ076-096-097-290700-
SOUTHEASTERN MIDDLE TENNESSEE

CITY           SKY/WX    TMP DP  RH WIND       PRES   REMARKS
TULLAHOMA      MOCLDY    72  64  78 CALM      30.15F
WINCHESTER     MOCLDY    73  66  78 SE8       30.14F
$$

...SURROUNDING SITES...

CITY           SKY/WX    TMP DP  RH WIND       PRES   REMARKS
ATLANTA        MOCLDY    74  68  81 SE5       30.18R
ANNISTON       MOCLDY    74  68  81 N5        30.14S
BIRMINGHAM     FAIR      76  69  79 SE9       30.12F
CHATTANOOGA    FAIR      72  66  81 CALM      30.15F
DALTON         FAIR      68  68 100 CALM      30.15F
GADSDEN        FAIR      70  63  78 CALM      30.12S
GOLDEN TRNGL   FAIR      75  64  69 SE13      30.05F
HALEYVILLE     FAIR      73  70  91 CALM      30.13F
JACKSON TN     FAIR      68  64  87 SE5       30.06S
MEMPHIS        FAIR      78  65  63 S6        30.04S
NASHVILLE      FAIR      73  65  75 S8        30.11S
OXFORD MS      FAIR      70  64  83 SE5       30.06F
ROME           FAIR      69  66  90 CALM      30.14F
SAVANNAH       PTCLDY    72  32  23 S5        30.08S
TUPELO         FAIR      75  68  78 S8        30.05F
TUSCALOOSA     FAIR      76  69  79 VRB6      30.07S
$$

...GULF COAST WEATHER...

CITY           SKY/WX    TMP DP  RH WIND       PRES   REMARKS
GULFPORT       FAIR      72  67  84 CALM      30.03S
PASCAGOULA     FAIR      68  67  96 CALM      30.04F
MOBILE         FAIR      71  68  90 CALM      30.05F
GULF SHORES    MOCLDY    74  71  88 CALM      30.04F
PENSACOLA      FAIR      75  69  81 NW3       30.03F
DESTIN         FAIR      81  74  79 SE14      30.03F
PANAMA CITY    FAIR      77  72  83 SE7       30.05F
APPALACHICOLA  FAIR      79  73  82 SE12      30.04F
$$




USA.gov is the U.S. government's official web portal to all federal, state and local government web resources and services.